sat.trackr.live / text

‹ back to catalog

STARLINK-31906

NORAD 59842 · 2024-097H

PAYLOAD ACTIVE UNKNOWN

§ Identity

Operator
Country
US
Launch date
2024-05-23
Launch site
AFETR
Launch vehicle
Mass (kg)
RCS (m²)

Purposes: comms

External: N2YO · Heavens-Above · Gunter

§ Orbital elements

Epoch: 2026-05-24T14:11:57.886944Z

Period
94.27 min
Inclination
42.9985°
Eccentricity
0.0001246
Mean motion
15.27579128 rev/d
Perigee alt
482.2 km
Apogee alt
483.9 km
Semi-major
6,861.2 km
B*
1.4607e-4
RAAN
205.8247°
Arg perigee
276.4469°
Mean anomaly
83.6240°
Rev number
11,352

§ Raw data

STARLINK-319061 59842U 24097H   26144.59164221  .00003759  00000+0  14607-3 0  99912 59842  42.9985 205.8247 0001246 276.4469  83.6240 15.27579128113528

JSON: /api/v1/satellites/59842 · /tle

For live sub-satellite position, see the globe view (requires WebGL).

§ Visibility from observer

Set your observer location to see the next 7 days of passes ≥ 10°. The values pass through the URL so the page stays shareable.

No JS? Fill the form by hand. The geolocation button needs JavaScript.